Test XHTML 1.0 Strict Page for WU-History Testing
Histórico de la Estación METEOCORUÑA
 
Diario Datos del Agosto 19, 2018 Unidades:  Metrico    Inglés   Ambos
« Prev Dia
Sig Dia »
Diario Semanal Mensual Anual Rango
  Actual: Max: Min: Media:
Temp: -7.1 °C -17.8 °C -8.4 °C -6.8 °C
Rocío: -9.4 °C -17.8 °C -10.1 °C -9.7 °C
Humedad: 77 % Humidity % 48 % 73 %
Vel. viento: 18.2 km/h 0 km/h 0 km/h 6.9 km/h
Racha: 33.6 km/h 0 km/h - -
Viento:NNW - - ESE
Presión: 34537.2 hPa 0 hPa 34533.8 hPa -
Lluvia: 0 mm      
Historical Graphs
 
 
Busqueda de Agosto 19, 2018
Hora Temp Rocío Presión Viento Vel. viento Racha Humedad Ratio lluvia (/hora) Radiación
-17.8 °C -17.8 °C 0 hPa Calm     Humidity % 0 mm SolarRadiationWatts/m^2 W/m2
00:04 -7.4 °C -9.7 °C 34550.7 hPa NNE 12.9 km/h 23.3 km/h 77 % 0 mm 0.00 W/m2
00:09 -7.4 °C -9.6 °C 34550.7 hPa NNE 12.9 km/h 23.3 km/h 78 % 0 mm 0.00 W/m2
00:14 -7.4 °C -9.6 °C 34550.7 hPa NNE 12.9 km/h 25.9 km/h 78 % 0 mm 0.00 W/m2
00:19 -7.5 °C -9.7 °C 34550.7 hPa NNE 12.9 km/h 28.5 km/h 78 % 0 mm 0.00 W/m2
00:24 -7.4 °C -9.6 °C 34554.1 hPa NNE 12.9 km/h 20.8 km/h 78 % 0 mm 0.00 W/m2
00:29 -7.4 °C -9.6 °C 34554.1 hPa NNE 10.3 km/h 23.3 km/h 78 % 0 mm 0.00 W/m2
00:34 -7.5 °C -9.7 °C 34554.1 hPa NNE 10.3 km/h 31.1 km/h 78 % 0 mm 0.00 W/m2
00:39 -7.5 °C -9.7 °C 34557.5 hPa NNE 12.9 km/h 23.3 km/h 78 % 0 mm 0.00 W/m2
00:44 -7.6 °C -9.7 °C 34557.5 hPa North 15.6 km/h 28.5 km/h 79 % 0 mm 0.00 W/m2
00:49 -7.7 °C -9.7 °C 34557.5 hPa North 12.9 km/h 25.9 km/h 79 % 0 mm 0.00 W/m2
00:54 -7.7 °C -9.6 °C 34557.5 hPa NNE 12.9 km/h 23.3 km/h 80 % 0 mm 0.00 W/m2
00:59 -7.6 °C -9.7 °C 34554.1 hPa NNE 12.9 km/h 36.2 km/h 79 % 0 mm 0.00 W/m2
01:04 -7.6 °C -9.6 °C 34554.1 hPa NNE 12.9 km/h 23.3 km/h 79 % 0 mm 0.00 W/m2
01:09 -7.6 °C -9.6 °C 34557.5 hPa NNE 12.9 km/h 23.3 km/h 79 % 0 mm 0.00 W/m2
01:14 -7.6 °C -9.6 °C 34554.1 hPa NNE 10.3 km/h 23.3 km/h 79 % 0 mm 0.00 W/m2
01:19 -7.6 °C -9.6 °C 34557.5 hPa NNE 12.9 km/h 25.9 km/h 79 % 0 mm 0.00 W/m2
01:24 -7.6 °C -9.7 °C 34554.1 hPa North 12.9 km/h 20.8 km/h 79 % 0 mm 0.00 W/m2
01:29 -7.7 °C -9.7 °C 34554.1 hPa NNE 12.9 km/h 23.3 km/h 80 % 0 mm 0.00 W/m2
01:34 -7.8 °C -9.6 °C 34554.1 hPa NNE 10.3 km/h 18.2 km/h 81 % 0 mm 0.00 W/m2
01:39 -7.8 °C -9.7 °C 34554.1 hPa NNE 10.3 km/h 23.3 km/h 81 % 0 mm 0.00 W/m2
01:44 -7.8 °C -9.7 °C 34550.7 hPa NNE 7.7 km/h 18.2 km/h 81 % 0 mm 0.00 W/m2
01:49 -7.8 °C -9.6 °C 34550.7 hPa NNE 7.7 km/h 20.8 km/h 81 % 0 mm 0.00 W/m2
01:54 -7.7 °C -9.6 °C 34554.1 hPa NNE 10.3 km/h 20.8 km/h 81 % 0 mm 0.00 W/m2
01:59 -7.7 °C -9.6 °C 34550.7 hPa NNE 7.7 km/h 18.2 km/h 81 % 0 mm 0.00 W/m2
02:04 -7.7 °C -9.7 °C 34550.7 hPa NNE 7.7 km/h 15.6 km/h 80 % 0 mm 0.00 W/m2
02:09 -7.7 °C -9.6 °C 34550.7 hPa NNE 7.7 km/h 20.8 km/h 81 % 0 mm 0.00 W/m2
02:14 -7.8 °C -9.7 °C 34550.7 hPa North 7.7 km/h 18.2 km/h 81 % 0 mm 0.00 W/m2
02:19 -7.9 °C -9.6 °C 34547.4 hPa North 10.3 km/h 20.8 km/h 82 % 0 mm 0.00 W/m2
02:24 -7.9 °C -9.6 °C 34547.4 hPa North 10.3 km/h 23.3 km/h 82 % 0 mm 0.00 W/m2
02:29 -7.8 °C -9.7 °C 34550.7 hPa NNW 10.3 km/h 25.9 km/h 81 % 0 mm 0.00 W/m2
02:34 -7.7 °C -9.6 °C 34550.7 hPa NNW 12.9 km/h 23.3 km/h 81 % 0 mm 0.00 W/m2
02:39 -7.7 °C -9.7 °C 34550.7 hPa NNW 12.9 km/h 20.8 km/h 80 % 0 mm 0.00 W/m2
02:44 -7.7 °C -9.7 °C 34550.7 hPa North 10.3 km/h 20.8 km/h 80 % 0 mm 0.00 W/m2
02:49 -7.8 °C -9.6 °C 34550.7 hPa NNW 10.3 km/h 18.2 km/h 81 % 0 mm 0.00 W/m2
02:54 -7.9 °C -9.7 °C 34547.4 hPa North 7.7 km/h 18.2 km/h 81 % 0 mm 0.00 W/m2
02:59 -7.9 °C -9.6 °C 34547.4 hPa NNE 7.7 km/h 15.6 km/h 82 % 0 mm 0.00 W/m2
03:04 -7.9 °C -9.7 °C 34547.4 hPa NNE 7.7 km/h 25.9 km/h 82 % 0 mm 0.00 W/m2
03:09 -7.9 °C -9.6 °C 34547.4 hPa North 10.3 km/h 23.3 km/h 82 % 0 mm 0.00 W/m2
03:14 -7.9 °C -9.6 °C 34547.4 hPa North 12.9 km/h 23.3 km/h 82 % 0 mm 0.00 W/m2
03:19 -7.9 °C -9.6 °C 34547.4 hPa North 12.9 km/h 25.9 km/h 82 % 0 mm 0.00 W/m2
03:24 -7.8 °C -9.6 °C 34547.4 hPa North 12.9 km/h 23.3 km/h 82 % 0 mm 0.00 W/m2
03:29 -7.9 °C -9.6 °C 34547.4 hPa North 12.9 km/h 18.2 km/h 82 % 0 mm 0.00 W/m2
03:34 -7.9 °C -9.6 °C 34547.4 hPa North 10.3 km/h 25.9 km/h 82 % 0 mm 0.00 W/m2
03:39 -7.8 °C -9.6 °C 34544 hPa North 10.3 km/h 25.9 km/h 82 % 0 mm 0.00 W/m2
03:44 -7.7 °C -9.6 °C 34547.4 hPa North 12.9 km/h 20.8 km/h 81 % 0 mm 0.00 W/m2
03:49 -7.7 °C -9.6 °C 34550.7 hPa North 10.3 km/h 20.8 km/h 81 % 0 mm 0.00 W/m2
03:54 -7.7 °C -9.6 °C 34550.7 hPa North 10.3 km/h 15.6 km/h 81 % 0 mm 0.00 W/m2
03:59 -7.7 °C -9.6 °C 34550.7 hPa North 7.7 km/h 15.6 km/h 81 % 0 mm 0.00 W/m2
04:04 -7.7 °C -9.6 °C 34547.4 hPa North 7.7 km/h 15.6 km/h 81 % 0 mm 0.00 W/m2
04:09 -7.7 °C -9.6 °C 34547.4 hPa NNE 7.7 km/h 18.2 km/h 81 % 0 mm 0.00 W/m2
04:14 -7.7 °C -9.6 °C 34547.4 hPa NNE 7.7 km/h 15.6 km/h 81 % 0 mm 0.00 W/m2
04:19 -7.7 °C -9.6 °C 34547.4 hPa NNE 7.7 km/h 10.3 km/h 81 % 0 mm 0.00 W/m2
04:24 -7.8 °C -9.6 °C 34547.4 hPa NNE 5.1 km/h 12.9 km/h 82 % 0 mm 0.00 W/m2
04:29 -7.8 °C -9.6 °C 34547.4 hPa NNE 2.6 km/h 10.3 km/h 82 % 0 mm 0.00 W/m2
04:34 -7.8 °C -9.6 °C 34547.4 hPa NNE 5.1 km/h 12.9 km/h 82 % 0 mm 0.00 W/m2
04:39 -7.9 °C -9.6 °C 34544 hPa NNE 5.1 km/h 10.3 km/h 82 % 0 mm 0.00 W/m2
04:44 -7.9 °C -9.6 °C 34544 hPa NE 2.6 km/h 15.6 km/h 82 % 0 mm 0.00 W/m2
04:49 -7.9 °C -9.6 °C 34544 hPa NE 2.6 km/h 7.7 km/h 82 % 0 mm 0.00 W/m2
04:54 -7.9 °C -9.6 °C 34540.6 hPa NNE 2.6 km/h 10.3 km/h 82 % 0 mm 0.00 W/m2
04:59 -7.9 °C -9.7 °C 34544 hPa NNW 2.6 km/h 7.7 km/h 82 % 0 mm 0.00 W/m2
05:04 -7.9 °C -9.6 °C 34547.4 hPa North 5.1 km/h 7.7 km/h 83 % 0 mm 0.00 W/m2
05:09 -7.9 °C -9.6 °C 34547.4 hPa NNE 5.1 km/h 10.3 km/h 83 % 0 mm 0.00 W/m2
05:14 -7.9 °C -9.6 °C 34544 hPa NNE 5.1 km/h 7.7 km/h 83 % 0 mm 0.00 W/m2
05:19 -7.9 °C -9.6 °C 34544 hPa NNE 5.1 km/h 7.7 km/h 83 % 0 mm 0.00 W/m2
05:24 -7.9 °C -9.6 °C 34544 hPa NNE 5.1 km/h 7.7 km/h 83 % 0 mm 0.00 W/m2
05:29 -7.9 °C -9.6 °C 34544 hPa NNE 5.1 km/h 10.3 km/h 83 % 0 mm 0.00 W/m2
05:34 -8 °C -9.6 °C 34544 hPa NNE 2.6 km/h 5.1 km/h 83 % 0 mm 0.00 W/m2
05:39 -8 °C -9.6 °C 34544 hPa NNE 2.6 km/h 5.1 km/h 83 % 0 mm 0.00 W/m2
05:44 -8 °C -9.6 °C 34540.6 hPa NNE 2.6 km/h 2.6 km/h 83 % 0 mm 0.00 W/m2
05:49 -8.1 °C -9.7 °C 34544 hPa NNE 2.6 km/h 10.3 km/h 83 % 0 mm 0.00 W/m2
05:54 -8.1 °C -9.7 °C 34540.6 hPa NNE 2.6 km/h 7.7 km/h 83 % 0 mm 0.00 W/m2
05:59 -8.1 °C -9.7 °C 34540.6 hPa NNE 2.6 km/h 2.6 km/h 83 % 0 mm 0.00 W/m2
06:04 -8.2 °C -9.8 °C 34540.6 hPa NNE 2.6 km/h 2.6 km/h 83 % 0 mm 0.00 W/m2
06:09 -8.2 °C -9.8 °C 34540.6 hPa Calm   5.1 km/h 83 % 0 mm 0.00 W/m2
06:14 -8.2 °C -9.8 °C 34537.2 hPa Calm   2.6 km/h 84 % 0 mm 0.00 W/m2
06:19 -8.3 °C -9.8 °C 34537.2 hPa NNE 2.6 km/h 7.7 km/h 84 % 0 mm 0.00 W/m2
06:24 -8.3 °C -9.8 °C 34533.8 hPa NNE 5.1 km/h 7.7 km/h 84 % 0 mm 0.00 W/m2
06:29 -8.3 °C -9.8 °C 34533.8 hPa NNE 5.1 km/h 7.7 km/h 84 % 0 mm 0.00 W/m2
06:34 -8.4 °C -9.9 °C 34533.8 hPa NE 5.1 km/h 10.3 km/h 84 % 0 mm 0.00 W/m2
06:39 -8.4 °C -9.9 °C 34533.8 hPa NE 5.1 km/h 7.7 km/h 84 % 0 mm 0.00 W/m2
06:44 -8.4 °C -9.9 °C 34533.8 hPa NE 2.6 km/h 5.1 km/h 84 % 0 mm 0.00 W/m2
06:49 -8.4 °C -9.9 °C 34537.2 hPa NE 2.6 km/h 10.3 km/h 84 % 0 mm 0.00 W/m2
06:54 -8.4 °C -9.9 °C 34537.2 hPa NE 2.6 km/h 10.3 km/h 84 % 0 mm 0.00 W/m2
06:59 -8.3 °C -9.8 °C 34537.2 hPa NNE 2.6 km/h 10.3 km/h 84 % 0 mm 0.00 W/m2
07:04 -8.3 °C -9.9 °C 34537.2 hPa NE 5.1 km/h 7.7 km/h 83 % 0 mm 0.00 W/m2
07:09 -8.3 °C -9.9 °C 34533.8 hPa NE 2.6 km/h 5.1 km/h 83 % 0 mm 0.00 W/m2
07:14 -8.3 °C -9.9 °C 34533.8 hPa NE 2.6 km/h 5.1 km/h 83 % 0 mm 0.00 W/m2
07:19 -8.3 °C -9.9 °C 34537.2 hPa NE 2.6 km/h 5.1 km/h 83 % 0 mm 0.00 W/m2
07:24 -8.3 °C -9.9 °C 34537.2 hPa NE 2.6 km/h 5.1 km/h 83 % 0 mm 0.00 W/m2
07:29 -8.3 °C -9.9 °C 34537.2 hPa NE 2.6 km/h 7.7 km/h 83 % 0 mm 0.00 W/m2
07:34 -8.3 °C -9.9 °C 34537.2 hPa ENE 2.6 km/h 5.1 km/h 83 % 0 mm 0.00 W/m2
07:39 -8.3 °C -9.9 °C 34537.2 hPa ENE 2.6 km/h 7.7 km/h 83 % 0 mm 0.00 W/m2
07:44 -8.3 °C -9.9 °C 34540.6 hPa ENE 2.6 km/h 10.3 km/h 83 % 0 mm 0.00 W/m2
07:49 -8.3 °C -9.9 °C 34540.6 hPa ENE 2.6 km/h 10.3 km/h 83 % 0 mm 7.00 W/m2
07:54 -8.3 °C -9.9 °C 34544 hPa NNE 5.1 km/h 12.9 km/h 83 % 0 mm 11.00 W/m2
07:59 -8.3 °C -9.9 °C 34544 hPa NE 5.1 km/h 5.1 km/h 83 % 0 mm 14.00 W/m2
08:04 -8.3 °C -10.1 °C 34544 hPa NE 2.6 km/h 7.7 km/h 82 % 0 mm 16.00 W/m2
08:09 -8.3 °C -10.1 °C 34547.4 hPa NE 2.6 km/h 10.3 km/h 82 % 0 mm 21.00 W/m2
08:14 -8.3 °C -10.1 °C 34547.4 hPa East 2.6 km/h 7.7 km/h 82 % 0 mm 26.00 W/m2
08:19 -8.3 °C -10 °C 34547.4 hPa ENE 2.6 km/h 12.9 km/h 82 % 0 mm 28.00 W/m2
08:24 -8.3 °C -10 °C 34550.7 hPa ENE 5.1 km/h 12.9 km/h 82 % 0 mm 40.00 W/m2
08:29 -8.2 °C -9.9 °C 34550.7 hPa ENE 5.1 km/h 12.9 km/h 82 % 0 mm 49.00 W/m2
08:34 -8.2 °C -10.1 °C 34550.7 hPa ENE 5.1 km/h 7.7 km/h 81 % 0 mm 58.00 W/m2
08:39 -8.2 °C -10 °C 34550.7 hPa East 5.1 km/h 18.2 km/h 81 % 0 mm 70.00 W/m2
08:44 -8.1 °C -10.1 °C 34550.7 hPa East 5.1 km/h 7.7 km/h 80 % 0 mm 70.00 W/m2
08:49 -8.1 °C -10.1 °C 34554.1 hPa ENE 5.1 km/h 7.7 km/h 79 % 0 mm 93.00 W/m2
08:54 -7.9 °C -10 °C 34554.1 hPa ENE 2.6 km/h 5.1 km/h 79 % 0 mm 105.00 W/m2
08:59 -7.9 °C -10.1 °C 34557.5 hPa Calm   2.6 km/h 78 % 0 mm 86.00 W/m2
09:04 -7.8 °C -10 °C 34557.5 hPa Calm   7.7 km/h 78 % 0 mm 130.00 W/m2
09:09 -7.8 °C -10.1 °C 34560.9 hPa ENE 2.6 km/h 10.3 km/h 77 % 0 mm 141.00 W/m2
09:14 -7.8 °C -10.1 °C 34560.9 hPa ENE 5.1 km/h 10.3 km/h 77 % 0 mm 149.00 W/m2
09:19 -7.7 °C -10 °C 34560.9 hPa ENE 2.6 km/h 5.1 km/h 77 % 0 mm 169.00 W/m2
09:24 -7.7 °C -9.9 °C 34564.3 hPa Calm     77 % 0 mm 185.00 W/m2
09:29 -7.6 °C -9.9 °C 34567.7 hPa Calm   10.3 km/h 76 % 0 mm 185.00 W/m2
09:34 -7.4 °C -9.9 °C 34567.7 hPa ENE 2.6 km/h 10.3 km/h 75 % 0 mm 211.00 W/m2
09:39 -7.4 °C -10.1 °C 34567.7 hPa ENE 5.1 km/h 10.3 km/h 74 % 0 mm 221.00 W/m2
09:44 -7.3 °C -9.9 °C 34567.7 hPa ENE 2.6 km/h 5.1 km/h 74 % 0 mm 230.00 W/m2
09:49 -7.2 °C -9.9 °C 34567.7 hPa ENE 2.6 km/h 7.7 km/h 73 % 0 mm 246.00 W/m2
09:54 -7.1 °C -9.9 °C 34567.7 hPa ENE 2.6 km/h 7.7 km/h 72 % 0 mm 262.00 W/m2
09:59 -7 °C -10 °C 34571.1 hPa ENE 2.6 km/h 10.3 km/h 71 % 0 mm 276.00 W/m2
10:04 -6.9 °C -9.9 °C 34571.1 hPa ENE 2.6 km/h 10.3 km/h 71 % 0 mm 290.00 W/m2
10:09 -6.8 °C -9.8 °C 34571.1 hPa ENE 2.6 km/h 10.3 km/h 71 % 0 mm 302.00 W/m2
10:14 -6.7 °C -9.7 °C 34571.1 hPa ENE 2.6 km/h 10.3 km/h 71 % 0 mm 322.00 W/m2
10:19 -6.7 °C -9.8 °C 34571.1 hPa ENE 5.1 km/h 10.3 km/h 70 % 0 mm 338.00 W/m2
10:24 -6.5 °C -9.6 °C 34571.1 hPa NE 2.6 km/h 5.1 km/h 70 % 0 mm 350.00 W/m2
10:29 -6.4 °C -9.8 °C 34571.1 hPa NE 2.6 km/h 5.1 km/h 68 % 0 mm 362.00 W/m2
10:34 -6.3 °C -9.7 °C 34571.1 hPa NE 2.6 km/h 5.1 km/h 68 % 0 mm 376.00 W/m2
10:39 -6.1 °C -9.8 °C 34571.1 hPa NE 2.6 km/h 10.3 km/h 66 % 0 mm 390.00 W/m2
10:44 -6.1 °C -9.8 °C 34571.1 hPa ENE 2.6 km/h 10.3 km/h 65 % 0 mm 406.00 W/m2
10:49 -6 °C -9.8 °C 34571.1 hPa ENE 2.6 km/h 5.1 km/h 65 % 0 mm 418.00 W/m2
10:54 -5.9 °C -9.8 °C 34571.1 hPa NE 2.6 km/h 7.7 km/h 64 % 0 mm 434.00 W/m2
10:59 -5.7 °C -9.9 °C 34571.1 hPa Calm   5.1 km/h 62 % 0 mm 450.00 W/m2
11:04 -5.6 °C -9.8 °C 34567.7 hPa Calm   2.6 km/h 62 % 0 mm 461.00 W/m2
11:09 -5.3 °C -9.7 °C 34567.7 hPa Calm   5.1 km/h 61 % 0 mm 471.00 W/m2
11:14 -5.2 °C -9.7 °C 34567.7 hPa Calm   2.6 km/h 60 % 0 mm 461.00 W/m2
11:19 -5.1 °C -9.8 °C 34571.1 hPa Calm   5.1 km/h 59 % 0 mm 443.00 W/m2
11:24 -4.9 °C -9.7 °C 34571.1 hPa Calm   2.6 km/h 58 % 0 mm 432.00 W/m2
11:29 -4.8 °C -9.8 °C 34571.1 hPa Calm   2.6 km/h 57 % 0 mm 432.00 W/m2
11:34 -4.7 °C -9.8 °C 34571.1 hPa Calm   2.6 km/h 56 % 0 mm 457.00 W/m2
11:39 -4.6 °C -9.6 °C 34571.1 hPa Calm   10.3 km/h 57 % 0 mm 497.00 W/m2
11:44 -4.8 °C -9.9 °C 34571.1 hPa NE 2.6 km/h 7.7 km/h 56 % 0 mm 541.00 W/m2
11:49 -4.9 °C -9.9 °C 34571.1 hPa ENE 5.1 km/h 12.9 km/h 57 % 0 mm 566.00 W/m2
11:54 -4.9 °C -9.7 °C 34567.7 hPa ENE 5.1 km/h 2.6 km/h 58 % 0 mm 564.00 W/m2
11:59 -4.7 °C -9.7 °C 34571.1 hPa ENE 2.6 km/h 2.6 km/h 57 % 0 mm 555.00 W/m2
12:04 -4.5 °C -9.7 °C 34571.1 hPa Calm   7.7 km/h 56 % 0 mm 543.00 W/m2
12:09 -4.3 °C -9.5 °C 34571.1 hPa Calm   2.6 km/h 56 % 0 mm 536.00 W/m2
12:14 -4.4 °C -9.9 °C 34567.7 hPa NE 2.6 km/h 7.7 km/h 54 % 0 mm 527.00 W/m2
12:19 -4.7 °C -9.8 °C 34571.1 hPa NE 2.6 km/h 10.3 km/h 56 % 0 mm 529.00 W/m2
12:24 -4.7 °C -9.7 °C 34567.7 hPa NE 5.1 km/h 5.1 km/h 57 % 0 mm 541.00 W/m2
12:29 -4.7 °C -9.7 °C 34567.7 hPa NE 2.6 km/h 7.7 km/h 57 % 0 mm 566.00 W/m2
12:34 -4.6 °C -9.6 °C 34567.7 hPa NE 2.6 km/h 7.7 km/h 57 % 0 mm 589.00 W/m2
12:39 -4.3 °C -9.5 °C 34567.7 hPa NE 2.6 km/h 2.6 km/h 56 % 0 mm 622.00 W/m2
12:44 -4.1 °C -9.5 °C 34567.7 hPa NE 2.6 km/h 5.1 km/h 55 % 0 mm 664.00 W/m2
12:49 -3.9 °C -9.4 °C 34564.3 hPa Calm   2.6 km/h 54 % 0 mm 691.00 W/m2
12:54 -3.6 °C -9.3 °C 34564.3 hPa Calm   2.6 km/h 53 % 0 mm 701.00 W/m2
12:59 -3.2 °C -9.1 °C 34564.3 hPa Calm   5.1 km/h 52 % 0 mm 715.00 W/m2
13:04 -3.1 °C -9.1 °C 34564.3 hPa Calm   7.7 km/h 51 % 0 mm 724.00 W/m2
13:09 -3.3 °C -9.2 °C 34560.9 hPa Calm   5.1 km/h 52 % 0 mm 729.00 W/m2
13:14 -3.4 °C -9.3 °C 34560.9 hPa NE 2.6 km/h 10.3 km/h 52 % 0 mm 728.00 W/m2
13:19 -3.3 °C -9.5 °C 34560.9 hPa NE 2.6 km/h 5.1 km/h 50 % 0 mm 737.00 W/m2
13:24 -3.2 °C -9.6 °C 34557.5 hPa NE 2.6 km/h 10.3 km/h 49 % 0 mm 742.00 W/m2
13:29 -3.2 °C -9.6 °C 34554.1 hPa NE 2.6 km/h 7.7 km/h 49 % 0 mm 747.00 W/m2
13:34 -3.1 °C -9.4 °C 34554.1 hPa NE 2.6 km/h 5.1 km/h 50 % 0 mm 754.00 W/m2
13:39 -3.2 °C -9.6 °C 34554.1 hPa NNE 2.6 km/h 7.7 km/h 49 % 0 mm 758.00 W/m2
13:44 -3.2 °C -9.6 °C 34554.1 hPa NNE 2.6 km/h 7.7 km/h 49 % 0 mm 761.00 W/m2
13:49 -3.2 °C -9.4 °C 34550.7 hPa NNE 2.6 km/h 7.7 km/h 50 % 0 mm 766.00 W/m2
13:54 -3 °C -9.6 °C 34550.7 hPa NNE 2.6 km/h 5.1 km/h 48 % 0 mm 772.00 W/m2
13:59 -2.8 °C -9.4 °C 34550.7 hPa Calm   15.6 km/h 48 % 0 mm 773.00 W/m2
14:04 -3.5 °C -9.6 °C 34550.7 hPa West 5.1 km/h 15.6 km/h 51 % 0 mm 773.00 W/m2
14:09 -3.7 °C -9.4 °C 34550.7 hPa West 5.1 km/h 12.9 km/h 53 % 0 mm 777.00 W/m2
14:14 -4 °C -9.6 °C 34547.4 hPa West 5.1 km/h 12.9 km/h 54 % 0 mm 780.00 W/m2
14:19 -4 °C -9.7 °C 34550.7 hPa West 7.7 km/h 10.3 km/h 53 % 0 mm 773.00 W/m2
14:24 -3.9 °C -9.3 °C 34547.4 hPa West 7.7 km/h 10.3 km/h 55 % 0 mm 777.00 W/m2
14:29 -3.8 °C -9.4 °C 34547.4 hPa WSW 7.7 km/h 15.6 km/h 54 % 0 mm 777.00 W/m2
14:34 -3.9 °C -9.3 °C 34544 hPa West 7.7 km/h 15.6 km/h 55 % 0 mm 777.00 W/m2
14:39 -3.8 °C -9.2 °C 34547.4 hPa WNW 10.3 km/h 20.8 km/h 55 % 0 mm 749.00 W/m2
14:44 -3.8 °C -9.3 °C 34547.4 hPa NW 7.7 km/h 20.8 km/h 54 % 0 mm 700.00 W/m2
14:49 -4.4 °C -9.3 °C 34547.4 hPa NW 10.3 km/h 28.5 km/h 58 % 0 mm 650.00 W/m2
14:54 -5 °C -9.4 °C 34547.4 hPa NW 15.6 km/h 31.1 km/h 61 % 0 mm 633.00 W/m2
14:59 -5.4 °C -9.5 °C 34550.7 hPa NW 15.6 km/h 36.2 km/h 63 % 0 mm 633.00 W/m2
15:04 -5.6 °C -9.4 °C 34550.7 hPa NW 18.2 km/h 33.6 km/h 65 % 0 mm 661.00 W/m2
15:09 -5.3 °C -9.4 °C 34550.7 hPa NNW 18.2 km/h 36.2 km/h 63 % 0 mm 707.00 W/m2
15:14 -5.3 °C -9.6 °C 34547.4 hPa NW 18.2 km/h 46.7 km/h 62 % 0 mm 751.00 W/m2
15:19 -5.1 °C -9.4 °C 34547.4 hPa NW 20.8 km/h 46.7 km/h 61 % 0 mm 770.00 W/m2
15:24 -5.3 °C -9.6 °C 34547.4 hPa NNW 25.9 km/h 44.1 km/h 62 % 0 mm 763.00 W/m2
15:29 -5.7 °C -9.6 °C 34547.4 hPa NW 25.9 km/h 41.4 km/h 65 % 0 mm 758.00 W/m2
15:34 -6.4 °C -9.7 °C 34547.4 hPa NW 25.9 km/h 46.7 km/h 69 % 0 mm 759.00 W/m2
15:39 -6.8 °C -9.7 °C 34547.4 hPa NNW 25.9 km/h 46.7 km/h 72 % 0 mm 759.00 W/m2
15:44 -6.8 °C -9.4 °C 34547.4 hPa NW 23.3 km/h 41.4 km/h 74 % 0 mm 754.00 W/m2
15:49 -6.6 °C -9.4 °C 34547.4 hPa NW 20.8 km/h 36.2 km/h 73 % 0 mm 747.00 W/m2
15:54 -6.4 °C -9.2 °C 34547.4 hPa NW 18.2 km/h 36.2 km/h 73 % 0 mm 740.00 W/m2
15:59 -6.4 °C -9.2 °C 34550.7 hPa NW 15.6 km/h 33.6 km/h 73 % 0 mm 738.00 W/m2
16:04 -6.6 °C -9.3 °C 34547.4 hPa NW 15.6 km/h 44.1 km/h 73 % 0 mm 731.00 W/m2
16:09 -6.6 °C -9.3 °C 34550.7 hPa NNW 15.6 km/h 51.8 km/h 74 % 0 mm 722.00 W/m2
16:14 -6.6 °C -9.1 °C 34544 hPa NW 15.6 km/h 28.5 km/h 75 % 0 mm 714.00 W/m2
16:19 -6.7 °C -9.3 °C 34544 hPa NW 15.6 km/h 36.2 km/h 75 % 0 mm 705.00 W/m2
16:24 -6.7 °C -9.3 °C 34544 hPa NW 15.6 km/h 36.2 km/h 75 % 0 mm 703.00 W/m2
16:29 -6.6 °C -9.1 °C 34544 hPa NW 12.9 km/h 15.6 km/h 76 % 0 mm 693.00 W/m2
16:34 -6.5 °C -9.1 °C 34544 hPa NNW 10.3 km/h 28.5 km/h 75 % 0 mm 687.00 W/m2
16:39 -6.4 °C -9 °C 34544 hPa West 10.3 km/h 28.5 km/h 75 % 0 mm 671.00 W/m2
16:44 -6.3 °C -8.9 °C 34540.6 hPa WNW 7.7 km/h 28.5 km/h 74 % 0 mm 668.00 W/m2
16:49 -6.3 °C -9.1 °C 34544 hPa NNW 7.7 km/h 25.9 km/h 73 % 0 mm 663.00 W/m2
16:54 -6.3 °C -9.1 °C 34540.6 hPa NNW 12.9 km/h 28.5 km/h 73 % 0 mm 652.00 W/m2
16:59 -6.3 °C -9.1 °C 34540.6 hPa NNW 12.9 km/h 46.7 km/h 73 % 0 mm 636.00 W/m2
17:04 -6.4 °C -9.1 °C 34540.6 hPa NW 15.6 km/h 38.8 km/h 74 % 0 mm 621.00 W/m2
17:09 -6.6 °C -9.1 °C 34540.6 hPa NNW 15.6 km/h 38.8 km/h 75 % 0 mm 617.00 W/m2
17:14 -6.6 °C -9.1 °C 34540.6 hPa NNW 18.2 km/h 28.5 km/h 76 % 0 mm 603.00 W/m2
17:19 -6.8 °C -9.2 °C 34537.2 hPa NNW 15.6 km/h 44.1 km/h 76 % 0 mm 589.00 W/m2
17:24 -7.1 °C -9.4 °C 34537.2 hPa NNW 18.2 km/h 33.6 km/h 77 % 0 mm 573.00 W/m2
Meteocoruña
Agradecimientos a Weather Underground - 2.5 mb